www.pogodaiklimat.ru

Погода и климат >> Архив погоды >> Уоллис и Футуна >> Остров Увеа


ПОГОДА на Острове Увеа

  • Прогноз погоды на Острове Увеа
  • Монитор погоды на Острове Увеа

АРХИВ ПОГОДЫ на Острове Увеа

Время (UTC), дата Ветер
(напр.,м/с)
 
Видим.   Явления Облачность Т
(С)
Тd
(С)
f
(%)
Тe
(С)
Тes
(С)
Комфортность P
(гПа)
Po
(гПа)
Тmin
(С)
Tmax
(С)
R
(мм)
R24
(мм)
S
(см)
06 17.02 З 2
{5}
н/о н/о +29.1 +24.9 78 +42 +42 опасность
перегрева
1007.6 1004.5 +25.2 +31.6
09 17.02 ЮЗ 1
{3}
н/о н/о +27.0 +24.6 87 +38 +38 очень
душно
1009.7 1006.5
12 17.02 штиль 0
{1}
н/о н/о +25.6 +24.2 92 +35 +35 очень
душно
1009.7 1006.5
15 17.02 штиль 0
{1}
н/о н/о +25.0 +24.1 95 +34 +34 очень
душно
1007.7 1004.5
18 17.02 штиль 0
{1}
н/о н/о +24.8 +24.1 96 +34 +34 очень
душно
1008.6 1005.4 +24.7 +29.0
21 17.02 ЮЗ 1
{4}
н/о н/о +30.9 +25.0 71 +44 +44 опасность
перегрева
1009.6 1006.5
00 18.02 З 2
{5}
20 км 3/3 800 м
[Cu hum Ci fib]
+30.1 +25.2 75 +44 +59 опасность
перегрева
1008.5 1005.4
09 18.02 штиль 0
{2}
15 км 10/10 1500 м
[]
+26.6 +25.0 91 +38 +38 очень
душно
1010.1 1006.9
12 18.02 З 2
{3}
40 км 10/10 600 м
[]
+26.0 +25.1 95 +37 +37 очень
душно
1010.1 1006.9 2
15 18.02 З 2
{4}
60 км 10/10 1500 м
[]
+26.1 +24.1 89 +36 +36 очень
душно
1008.3 1005.1 0.0
18 18.02 штиль 0
{2}
20 км 1/0
[Ci fib]
+25.2 +24.3 95 +35 +35 очень
душно
1008.3 1005.1 +25.2 +29.6
21 18.02 З 3
{6}
20 км 3/1 630 м
[Cu hum Ci fib]
+30.4 +25.5 75 +45 +54 опасность
перегрева
1009.1 1006.0
00 19.02 З 5
{8}
20 км 4/4 700 м
[Cu med, cong]
+31.4 +26.0 73 +47 +55 опасность
перегрева
1008.1 1005.0
03 19.02 З 5
{7}
20 км 3/3 700 м
[Cu med, cong]
+31.7 +25.1 68 +45 +49 опасность
перегрева
1006.6 1003.5
06 19.02 ЮЗ 1
{7}
7000 м 8/8 1500 м
[]
+28.0 +25.4 86 +41 +41 опасность
перегрева
1007.2 1004.0 +25.2 +32.2 0.2
09 19.02 З 2
{7}
9000 м слаб. дождь 10/10 300 м
[]
+25.8 +24.8 94 +37 +37 очень
душно
1009.4 1006.2 10
12 19.02 штиль 0
{1}
13 км н/о +26.2 +25.7 97 +39 +39 очень
душно
1008.9 1005.7 0.0
15 19.02 ЮЗ 2
{3}
50 км н/о +26.6 +25.6 94 +39 +39 очень
душно
1007.5 1004.3
18 19.02 З 2
{4}
6000 м слаб. дождь 9/9 300 м
[]
+25.6 +24.7 95 +36 +36 очень
душно
1008.3 1005.1 +25.0 +28.0 17
21 19.02 Ю 2
{2}
20 км {дождь} 6/3 750 м
[Cu med, cong Ac lent Cc]
+28.1 +26.3 90 +43 +50 опасность
перегрева
1009.3 1006.1 3
00 20.02 З 4
{7}
50 км н/о +31.3 +26.6 76 +48 +48 опасность
перегрева
1007.1 1004.0
03 20.02 ЮЗ 4
{8}
55 км 9/9 600 м
[]
+30.1 +25.4 76 +44 +45 опасность
перегрева
1005.5 1002.4
06 20.02 ЮЗ 2
{6}
24 км н/о +29.1 +25.7 82 +43 +43 опасность
перегрева
1006.1 1003.0 +25.6 +32.0 0.2
09 20.02 Ю 1
{6}
55 км 10/0 2000 м
[]
+26.3 +24.7 91 +37 +37 очень
душно
1008.5 1005.3 0.2
12 20.02 ЮЗ 2
{6}
60 км н/о +25.8 +24.8 94 +37 +37 очень
душно
1008.3 1005.1 7
15 20.02 ЮЗ 2
{3}
35 км 8/8 600 м
[]
+26.1 +25.4 96 +38 +38 очень
душно
1006.6 1003.4 0.4
18 20.02 Ю 2
{2}
30 км 5/0
[Ac lent Ci fib]
+26.0 +25.3 96 +38 +38 очень
душно
1007.4 1004.2 +25.6 +29.1
21 20.02 З 3
{5}
30 км 6/5 840 м
[Cu Sc Ac lent Ci fib]
+30.4 +26.1 78 +46 +51 опасность
перегрева
1008.5 1005.4
00 21.02 З 5
{7}
30 км {дождь} 4/4 840 м
[Cu Sc Ci fib]
+32.0 +26.3 72 +48 +56 опасность
перегрева
1007.5 1004.4 0.4
03 21.02 З 4
{9}
30 км 4/4 630 м
[Cu Sc Ci fib]
+31.5 +26.8 76 +49 +53 опасность
перегрева
1005.8 1002.7
06 21.02 ЮЗ 3
{6}
55 км н/о +29.1 +25.5 81 +43 +43 опасность
перегрева
1006.7 1003.6 +26.0 +32.4
09 21.02 ЮЗ 1
{3}
14 км н/о +27.4 +25.6 90 +40 +40 очень
душно
1008.2 1005.0
12 21.02 ЮЗ 2
{3}
28 км 9/9 1500 м
[]
+26.6 +25.6 94 +39 +39 очень
душно
1007.5 1004.3 4
15 21.02 ЮЗ 2
{3}
22 км н/о +26.2 +25.5 96 +38 +38 очень
душно
1005.8 1002.6 0.0
18 21.02 ЮЗ 2
{3}
16 км н/о +26.5 +25.5 94 +39 +39 очень
душно
1006.0 1002.8 +26.0 +29.0 0.2
21 21.02 ЮЗ 2
{4}
30 км 5/3 540 м
[Cu hum Ci fib]
+29.9 +25.9 79 +45 +53 опасность
перегрева
1006.7 1003.6
00 22.02 ЮВ 3
{8}
30 км 6/4 600 м
[Cu Sc Ci fib]
+31.3 +27.0 78 +49 +59 опасность
перегрева
1005.7 1002.6 0.0
03 22.02 В 5
{10}
30 км в посл. час дождь {ливн. осадки} 6/5 540 м
[Cu Sc Ci fib]
+28.3 +26.3 89 +43 +46 опасность
перегрева
1004.4 1001.3 2
06 22.02 ЮВ 4
{8}
20 км н/о +28.7 +25.5 83 +42 +42 опасность
перегрева
1005.1 1002.0 +26.6 +32.1
09 22.02 ЮВ 1
{9}
35 км слаб. дождь 10/10 600 м
[]
+26.4 +25.0 92 +38 +38 очень
душно
1006.8 1003.6 3
12 22.02 Ю 2
{4}
40 км 9/9 300 м
[]
+26.9 +25.7 93 +40 +40 очень
душно
1006.4 1003.2 0.2
15 22.02 ЮВ 1
{6}
40 км 10/10 300 м
[]
+26.5 +25.5 94 +39 +39 очень
душно
1004.9 1001.7 7
18 22.02 ЮВ 2
{8}
20 км 9/4 400 м
[Cu med, cong Ac trans Ci sp]
+26.6 +25.6 94 +39 +39 очень
душно
1005.7 1002.5 +26.2 +28.7 1
21 22.02 ЮВ 3
{7}
20 км 9/4 480 м
[Cu med, cong Ac trans Ci sp]
+28.8 +26.6 88 +45 +49 опасность
перегрева
1006.2 1003.1 0.6
00 23.02 ЮВ 4
{8}
50 км 9/9 300 м
[]
+29.9 +26.5 82 +46 +47 опасность
перегрева
1004.8 1001.7 0.0
03 23.02 ЮВ 4
{8}
55 км н/о +30.3 +25.8 77 +45 +45 опасность
перегрева
1003.4 1000.3
06 23.02 ЮВ 4
{7}
45 км 9/9 300 м
[]
+26.9 +25.9 94 +40 +40 очень
душно
1004.5 1001.3 +26.6 +31.1 0.4
09 23.02 ЮВ 2
{7}
1300 м дождь 10/10 100 м
[]
+27.3 +26.6 96 +42 +42 опасность
перегрева
1005.6 1002.4 5
12 23.02 ЮЗ 4
{12}
800 м сильн. дождь 10/10 200 м
[]
+24.7 +23.8 95 +34 +34 очень
душно
1005.9 1002.7 17
15 23.02 ЮВ 4
{10}
1000 м сильн. дождь 10/10 1000 м
[]
+23.2 +22.7 97 +32 +32 очень
душно
1004.6 1001.4 69
18 23.02 Ю 2
{8}
55 км 9/9 1500 м
[]
+23.4 +22.4 94 +32 +32 очень
душно
1004.9 1001.7 +22.9 +27.3 14
21 23.02 ЮВ 3
{6}
20 км 10/6 450 м
[Cb calv Ac trans]
+25.8 +23.8 89 +35 +37 очень
душно
1006.0 1002.8
00 24.02 ЮВ 7
{10}
20 км 10/4 2000 м
[Cu Sc Ac trans Ci sp]
+30.1 +26.1 79 +45 +47 опасность
перегрева
1004.5 1001.4
03 24.02 В 4
{10}
50 км 9/9 300 м
[]
+28.7 +26.3 87 +44 +44 опасность
перегрева
1002.4 999.3 0.0

 

Местоположение метеостанции Остров Увеа (Уоллис и Футуна): широта -13.24 долгота -176.19 высота над уровнем моря 27 м.

В архиве по умолчанию представлена погода на Острове Увеа за последнюю неделю. Архивные данные за месяц целиком и за предыдущие месяцы, начиная с января 2011 года, Вы можете получить, выбрав интересующий диапазон дат из раскрывающегося списка и нажав кнопку "Ввод!".


*Определитесь, кто Вы:
робот инопланетянин человек

Внимание! Время в таблицах - всемирное. Для получения местного времени необходимо прибавить поправку, которая равна 12 ч.

Смотрите также архив погоды в соседних городах и на ближайших метеорологических станциях:

Погода на Острове Футуна (Уоллис и Футуна) (240 км)
Погода на Острове Ниуафооу (Тонга) (266 км)
Погода на Станции Mount Talu (Самоа) (378 км)
Погода в Аэропорту Матаахо (Тонга) (398 км)
Погода на Станции Le Piu Tai (Самоа) (412 км)
Погода в Аэропорту Маота (Самоа) (429 км)
Погода на Острове Маноно (Самоа) (446 км)
Погода в Аэропорту Фалеоло (Самоа) (456 км)
Погода Фалеоло (Американское Самоа) (458 км)
Погода на Фалеоло восток (Самоа) (459 км)

Пояснения к столбцам:

Ветер - указаны скорость ветра в м/с - средняя за 10 мин, порывы в срок и между сроками (в фигурных скобках) и направление, откуда дует ветер: С - северный, СВ - северо-восточный, В - восточный, ЮВ - юго-восточный, Ю - южный, ЮЗ - юго-западный, З - западный, СЗ - северо-западный.
Видимость - горизонтальная дальность видимости в метрах или километрах. При видимости от 1 до 10 км при отсутствии осадков обычно наблюдается дымка, при ухудшении видимости до 1 км и менее - туман. В сухую погоду видимость может ухудшаться дымом, пылью или мглою.
Явления - указаны атмосферные явления, наблюдавшиеся в срок или в последний час перед сроком; фигурными скобками обозначены явления, наблюдавшиеся между сроками (за 1-3 часа до срока); квадратными скобками обозначены град или гололедные отложения с указанием их диаметра в мм.
Облачность - указаны через наклонную черту общая и нижняя облачность в баллах и высота нижней границы облаков в метрах; квадратными скобками обозначены формы облаков: Ci - перистые, Cs - перисто-слоистые, Cc - перисто-кучевые, Ac - высококучевые, As - высокослоистые, Sc - слоисто-кучевые, Ns - слоисто-дождевые, Cu - кучевые, Cb - кучево-дождевые. Подробнее классификацию облаков см. в Атласе облаков (PDF).
T - Температура воздуха - температура, измеренная на высоте 2 м над землей.
Td - Температура точки росы - температура, при понижении до которой содержащийся в воздухе водяной пар достигнет насыщения.
f - Относительная влажность воздуха - влажноcть воздуха, измеренная на высоте 2 м над землей.
Te - Эффективная температура - температура, которую ощущает одетый по сезону человек в тени. Характеристика душности погоды. При расчете учитывается влияние влажности воздуха и скорости ветра на теплоощущения человека.
Tes - Эффективная температура на солнце - температура, которую ощущает человек, с поправкой на солнечный нагрев. Характеристика знойности погоды. Зависит от высоты солнца над горизонтом, облачности и скорости ветра. Ночью, в пасмурную погоду, а также при ветре 12 м/с и более поправка равна нулю.
P - Атмосферное давление - приведенное к уровню моря атмосферное давление.
Po - Атмосферное давление - измеренное на уровне метеостанции атмосферное давление.
Tmin - Минимальная температура - минимум температуры воздуха на высоте 2 м над землей.
Tmax - Максимальная температура - максимум температуры воздуха на высоте 2 м над землей.
R - Количество осадков - Количество выпавших осадков за период времени, мм. При наведении курсора мыши на число - период времени, за который выпало указанное количество осадков.
R24 - Количество осадков - Количество выпавших осадков за 24 часа, мм.
S - Снежный покров - Высота снежного покрова, см. При наведении курсора мыши на число - состояние снежного покрова и степень покрытия местности в баллах.